Time,TemperatureF,DewpointF,PressureIn,WindDirection,WindDirectionDegrees,WindSpeedMPH,WindSpeedGustMPH,Humidity,HourlyPrecipIn,Conditions,Clouds,dailyrainin,SoftwareType,DateUTC
2013-05-31 00:07:00,54.4,54.4,30.20,NW,319,0.0,0.0,100,0.00,,,0.00,Wunderground v.1.15,2013-05-31 07:07:00,
2013-05-31 00:17:00,54.1,54.1,30.20,NW,319,0.0,0.0,100,0.00,,,0.00,Wunderground v.1.15,2013-05-31 07:17:00,
2013-05-31 00:27:00,53.9,53.9,30.20,NW,319,0.0,0.0,100,0.00,,,0.00,Wunderground v.1.15,2013-05-31 07:27:00,
2013-05-31 00:37:00,53.9,53.9,30.21,NW,319,0.0,0.0,100,0.00,,,0.00,Wunderground v.1.15,2013-05-31 07:37:00,
2013-05-31 00:42:00,53.9,53.9,30.21,NW,319,0.0,0.0,100,0.00,,,0.00,Wunderground v.1.15,2013-05-31 07:42:00,
2013-05-31 00:52:00,53.9,53.9,30.21,NW,319,0.0,0.0,100,0.00,,,0.00,Wunderground v.1.15,2013-05-31 07:52:00,
2013-05-31 01:02:00,53.6,53.6,30.21,NW,319,0.0,0.0,100,0.00,,,0.00,Wunderground v.1.15,2013-05-31 08:02:00,
2013-05-31 01:07:00,53.6,53.6,30.21,NW,319,0.0,0.0,100,0.00,,,0.00,Wunderground v.1.15,2013-05-31 08:07:00,
2013-05-31 01:17:00,53.5,53.5,30.22,NW,319,0.0,0.0,100,0.00,,,0.00,Wunderground v.1.15,2013-05-31 08:17:00,
2013-05-31 01:22:00,53.5,53.5,30.22,NW,319,0.0,0.0,100,0.00,,,0.00,Wunderground v.1.15,2013-05-31 08:22:00,
2013-05-31 01:32:00,53.3,53.3,30.21,NW,319,0.0,0.0,100,0.00,,,0.00,Wunderground v.1.15,2013-05-31 08:32:00,
2013-05-31 01:42:00,53.3,53.3,30.21,NW,319,0.0,0.0,100,0.00,,,0.00,Wunderground v.1.15,2013-05-31 08:42:00,
2013-05-31 01:52:00,53.2,53.2,30.21,NW,319,0.0,0.0,100,0.00,,,0.00,Wunderground v.1.15,2013-05-31 08:52:00,
2013-05-31 01:57:00,53.2,53.2,30.21,NW,319,0.0,0.0,100,0.00,,,0.00,Wunderground v.1.15,2013-05-31 08:57:00,
2013-05-31 02:07:00,53.1,53.1,30.22,NW,319,0.0,0.0,100,0.00,,,0.00,Wunderground v.1.15,2013-05-31 09:07:00,
2013-05-31 02:12:00,53.1,53.1,30.22,NW,319,0.0,0.0,100,0.00,,,0.00,Wunderground v.1.15,2013-05-31 09:12:00,
2013-05-31 02:22:00,53.1,53.1,30.22,NW,319,0.0,0.0,100,0.00,,,0.00,Wunderground v.1.15,2013-05-31 09:22:00,
2013-05-31 02:27:00,53.1,53.1,30.22,NW,319,0.0,0.0,100,0.00,,,0.00,Wunderground v.1.15,2013-05-31 09:27:00,
2013-05-31 02:37:00,52.9,52.9,30.22,NW,319,0.0,0.0,100,0.00,,,0.00,Wunderground v.1.15,2013-05-31 09:37:00,
2013-05-31 02:47:00,52.8,52.8,30.22,NW,319,0.0,0.0,100,0.00,,,0.00,Wunderground v.1.15,2013-05-31 09:47:00,
2013-05-31 02:57:00,52.6,52.6,30.22,NW,319,0.0,0.0,100,0.00,,,0.00,Wunderground v.1.15,2013-05-31 09:57:00,
2013-05-31 03:02:00,52.6,52.6,30.22,NW,319,0.0,0.0,100,0.00,,,0.00,Wunderground v.1.15,2013-05-31 10:02:00,
2013-05-31 03:07:00,52.5,52.5,30.22,NW,319,0.0,0.0,100,0.00,,,0.00,Wunderground v.1.15,2013-05-31 10:07:00,
2013-05-31 03:17:00,52.3,52.3,30.22,NW,319,0.0,0.0,100,0.00,,,0.00,Wunderground v.1.15,2013-05-31 10:17:00,
2013-05-31 03:27:00,52.2,52.2,30.22,NW,319,0.0,0.0,100,0.00,,,0.00,Wunderground v.1.15,2013-05-31 10:27:00,
2013-05-31 03:32:00,52.0,52.0,30.22,NW,319,0.0,0.0,100,0.00,,,0.00,Wunderground v.1.15,2013-05-31 10:32:00,
2013-05-31 03:42:00,52.0,52.0,30.22,NW,319,0.0,0.0,100,0.00,,,0.00,Wunderground v.1.15,2013-05-31 10:42:00,
2013-05-31 03:52:00,51.9,51.9,30.21,NW,319,0.0,0.0,100,0.00,,,0.00,Wunderground v.1.15,2013-05-31 10:52:00,
2013-05-31 03:57:00,51.9,51.9,30.21,NW,319,0.0,0.0,100,0.00,,,0.00,Wunderground v.1.15,2013-05-31 10:57:00,
2013-05-31 04:07:00,51.7,51.7,30.22,NW,319,0.0,0.0,100,0.00,,,0.00,Wunderground v.1.15,2013-05-31 11:07:00,
2013-05-31 04:12:00,51.7,51.7,30.22,NW,319,0.0,0.0,100,0.00,,,0.00,Wunderground v.1.15,2013-05-31 11:12:00,
2013-05-31 04:22:00,51.7,51.7,30.22,NW,319,0.0,0.0,100,0.00,,,0.00,Wunderground v.1.15,2013-05-31 11:22:00,
2013-05-31 04:32:00,51.4,51.4,30.22,NW,319,0.0,0.0,100,0.00,,,0.00,Wunderground v.1.15,2013-05-31 11:32:00,
2013-05-31 04:37:00,51.4,51.4,30.22,NW,319,0.0,0.0,100,0.00,,,0.00,Wunderground v.1.15,2013-05-31 11:37:00,
2013-05-31 04:47:00,51.3,51.3,30.22,NW,319,0.0,0.0,100,0.00,,,0.00,Wunderground v.1.15,2013-05-31 11:47:00,
2013-05-31 04:57:00,51.1,51.1,30.22,NW,319,0.0,0.0,100,0.00,,,0.00,Wunderground v.1.15,2013-05-31 11:57:00,
2013-05-31 05:07:00,50.8,50.8,30.22,NW,319,0.0,0.0,100,0.00,,,0.00,Wunderground v.1.15,2013-05-31 12:07:00,
2013-05-31 05:17:00,50.8,50.8,30.23,NW,319,0.0,0.0,100,0.00,,,0.00,Wunderground v.1.15,2013-05-31 12:17:00,
2013-05-31 05:27:00,50.8,50.8,30.23,NW,319,0.0,0.0,100,0.00,,,0.00,Wunderground v.1.15,2013-05-31 12:27:00,
2013-05-31 05:37:00,50.7,50.7,30.23,NW,319,0.0,0.0,100,0.00,,,0.00,Wunderground v.1.15,2013-05-31 12:37:00,
2013-05-31 05:47:00,50.2,50.2,30.24,NW,319,0.0,0.0,100,0.00,,,0.00,Wunderground v.1.15,2013-05-31 12:47:00,
2013-05-31 05:52:00,50.2,50.2,30.24,NW,319,0.0,0.0,100,0.00,,,0.00,Wunderground v.1.15,2013-05-31 12:52:00,
2013-05-31 06:02:00,50.1,50.1,30.23,NW,319,0.0,0.0,100,0.00,,,0.00,Wunderground v.1.15,2013-05-31 13:02:00,
2013-05-31 06:07:00,49.9,49.9,30.23,NW,319,0.0,0.0,100,0.00,,,0.00,Wunderground v.1.15,2013-05-31 13:07:00,
2013-05-31 06:17:00,50.1,50.1,30.24,NW,319,0.0,0.0,100,0.00,,,0.00,Wunderground v.1.15,2013-05-31 13:17:00,
2013-05-31 06:22:00,50.2,50.2,30.24,NW,319,0.0,0.0,100,0.00,,,0.00,Wunderground v.1.15,2013-05-31 13:22:00,
2013-05-31 06:32:00,50.1,50.1,30.25,NW,319,0.0,0.0,100,0.00,,,0.00,Wunderground v.1.15,2013-05-31 13:32:00,
2013-05-31 06:42:00,50.8,50.8,30.25,NW,319,0.0,0.0,100,0.00,,,0.00,Wunderground v.1.15,2013-05-31 13:42:00,
2013-05-31 06:52:00,51.1,51.1,30.25,NW,320,0.0,0.0,100,0.00,,,0.00,Wunderground v.1.15,2013-05-31 13:52:00,
2013-05-31 06:57:00,51.7,51.7,30.25,NW,320,0.0,0.0,100,0.00,,,0.00,Wunderground v.1.15,2013-05-31 13:57:00,
2013-05-31 07:07:00,51.6,51.6,30.25,NW,323,0.0,0.0,100,0.00,,,0.00,Wunderground v.1.15,2013-05-31 14:07:00,
2013-05-31 07:12:00,51.3,51.3,30.25,North,0,0.0,0.0,100,0.00,,,0.00,Wunderground v.1.15,2013-05-31 14:12:00,
2013-05-31 07:22:00,51.1,51.1,30.26,North,4,0.0,0.0,100,0.00,,,0.00,Wunderground v.1.15,2013-05-31 14:22:00,
2013-05-31 07:27:00,51.1,51.1,30.26,North,0,0.0,0.0,100,0.00,,,0.00,Wunderground v.1.15,2013-05-31 14:27:00,
2013-05-31 07:37:00,51.1,51.1,30.26,North,0,0.0,0.0,100,0.00,,,0.00,Wunderground v.1.15,2013-05-31 14:37:00,
2013-05-31 07:42:00,51.3,51.3,30.26,North,0,0.0,0.0,100,0.00,,,0.00,Wunderground v.1.15,2013-05-31 14:42:00,
2013-05-31 07:52:00,52.0,52.0,30.27,North,3,0.0,0.0,100,0.00,,,0.00,Wunderground v.1.15,2013-05-31 14:52:00,
2013-05-31 08:02:00,52.3,52.3,30.27,North,3,0.0,0.0,100,0.00,,,0.00,Wunderground v.1.15,2013-05-31 15:02:00,
2013-05-31 08:07:00,52.3,52.3,30.27,North,4,0.0,0.0,100,0.00,,,0.00,Wunderground v.1.15,2013-05-31 15:07:00,
2013-05-31 08:17:00,53.1,53.1,30.27,North,3,0.0,0.0,100,0.00,,,0.00,Wunderground v.1.15,2013-05-31 15:17:00,
2013-05-31 08:22:00,53.5,53.5,30.27,North,3,0.0,0.0,100,0.00,,,0.00,Wunderground v.1.15,2013-05-31 15:22:00,
2013-05-31 08:32:00,54.5,54.5,30.27,North,3,0.0,0.0,100,0.00,,,0.00,Wunderground v.1.15,2013-05-31 15:32:00,
2013-05-31 08:42:00,55.1,55.1,30.27,North,3,0.0,0.0,100,0.00,,,0.00,Wunderground v.1.15,2013-05-31 15:42:00,
2013-05-31 08:47:00,55.4,54.8,30.28,North,3,0.0,0.0,98,0.00,,,0.00,Wunderground v.1.15,2013-05-31 15:47:00,
2013-05-31 08:57:00,56.5,53.6,30.28,North,3,0.0,0.0,90,0.00,,,0.00,Wunderground v.1.15,2013-05-31 15:57:00,
2013-05-31 09:07:00,58.0,53.2,30.28,North,3,0.0,0.0,84,0.00,,,0.00,Wunderground v.1.15,2013-05-31 16:07:00,
2013-05-31 09:17:00,59.3,52.8,30.28,North,3,0.0,0.0,79,0.00,,,0.00,Wunderground v.1.15,2013-05-31 16:17:00,
2013-05-31 09:27:00,60.7,53.1,30.28,North,3,0.0,0.0,76,0.00,,,0.00,Wunderground v.1.15,2013-05-31 16:27:00,
2013-05-31 09:37:00,59.9,51.6,30.27,SSE,160,0.0,0.0,74,0.00,,,0.00,Wunderground v.1.15,2013-05-31 16:37:00,
2013-05-31 09:47:00,59.5,51.2,30.27,SSE,164,0.0,0.0,74,0.00,,,0.00,Wunderground v.1.15,2013-05-31 16:47:00,
2013-05-31 09:52:00,59.0,50.0,30.27,West,278,0.0,0.0,72,0.00,,,0.00,Wunderground v.1.15,2013-05-31 16:52:00,
2013-05-31 10:02:00,59.0,49.6,30.26,West,278,0.0,0.0,71,0.00,,,0.00,Wunderground v.1.15,2013-05-31 17:02:00,
2013-05-31 10:12:00,61.5,50.4,30.26,WNW,301,0.0,0.0,67,0.00,,,0.00,Wunderground v.1.15,2013-05-31 17:12:00,
2013-05-31 10:22:00,60.9,49.5,30.26,SW,230,0.0,0.0,66,0.00,,,0.00,Wunderground v.1.15,2013-05-31 17:22:00,
2013-05-31 10:32:00,61.0,49.1,30.26,SW,227,0.0,0.0,65,0.00,,,0.00,Wunderground v.1.15,2013-05-31 17:32:00,
2013-05-31 10:42:00,63.2,47.2,30.26,SSE,158,0.0,0.0,56,0.00,,,0.00,Wunderground v.1.15,2013-05-31 17:42:00,
2013-05-31 10:52:00,63.7,46.7,30.25,SSW,202,0.0,0.0,54,0.00,,,0.00,Wunderground v.1.15,2013-05-31 17:52:00,
2013-05-31 10:57:00,63.9,46.4,30.25,North,3,0.0,0.0,53,0.00,,,0.00,Wunderground v.1.15,2013-05-31 17:57:00,
2013-05-31 11:07:00,64.8,46.2,30.25,North,356,0.0,0.0,51,0.00,,,0.00,Wunderground v.1.15,2013-05-31 18:07:00,
2013-05-31 11:12:00,64.8,47.8,30.25,SSW,208,0.0,2.0,54,0.00,,,0.00,Wunderground v.1.15,2013-05-31 18:12:00,
2013-05-31 11:22:00,63.7,48.2,30.26,WNW,296,1.0,1.0,57,0.00,,,0.00,Wunderground v.1.15,2013-05-31 18:22:00,
2013-05-31 11:27:00,63.5,45.6,30.26,NW,319,1.0,1.0,52,0.00,,,0.00,Wunderground v.1.15,2013-05-31 18:27:00,
2013-05-31 11:37:00,60.9,45.6,30.26,SW,217,1.0,1.0,57,0.00,,,0.00,Wunderground v.1.15,2013-05-31 18:37:00,
2013-05-31 11:42:00,61.0,44.7,30.26,WNW,299,1.0,1.0,55,0.00,,,0.00,Wunderground v.1.15,2013-05-31 18:42:00,
2013-05-31 11:52:00,62.0,44.2,30.26,WNW,294,0.0,0.0,52,0.00,,,0.00,Wunderground v.1.15,2013-05-31 18:52:00,
2013-05-31 11:57:00,62.7,43.8,30.26,WNW,298,0.0,0.0,50,0.00,,,0.00,Wunderground v.1.15,2013-05-31 18:57:00,
2013-05-31 12:07:00,63.4,43.9,30.25,NW,306,0.0,0.0,49,0.00,,,0.00,Wunderground v.1.15,2013-05-31 19:07:00,
2013-05-31 12:17:00,63.4,46.0,30.25,WNW,289,0.0,0.0,53,0.00,,,0.00,Wunderground v.1.15,2013-05-31 19:17:00,
2013-05-31 12:27:00,62.7,43.8,30.25,NW,320,2.0,6.0,50,0.00,,,0.00,Wunderground v.1.15,2013-05-31 19:27:00,
2013-05-31 12:32:00,63.2,43.2,30.25,NW,319,2.0,2.0,48,0.00,,,0.00,Wunderground v.1.15,2013-05-31 19:32:00,
2013-05-31 12:42:00,64.7,45.6,30.25,North,1,1.0,1.0,50,0.00,,,0.00,Wunderground v.1.15,2013-05-31 19:42:00,
2013-05-31 12:47:00,64.5,46.0,30.25,West,281,1.0,1.0,51,0.00,,,0.00,Wunderground v.1.15,2013-05-31 19:47:00,
2013-05-31 12:57:00,64.5,46.5,30.25,NW,305,2.0,3.0,52,0.00,,,0.00,Wunderground v.1.15,2013-05-31 19:57:00,
2013-05-31 13:07:00,64.2,45.7,30.24,NW,306,0.0,1.0,51,0.00,,,0.00,Wunderground v.1.15,2013-05-31 20:07:00,
2013-05-31 13:17:00,63.7,45.7,30.24,WSW,257,1.0,1.0,52,0.00,,,0.00,Wunderground v.1.15,2013-05-31 20:17:00,
2013-05-31 13:27:00,64.3,45.3,30.24,West,265,1.0,7.0,50,0.00,,,0.00,Wunderground v.1.15,2013-05-31 20:27:00,
2013-05-31 13:32:00,64.0,43.9,30.24,NW,313,2.0,2.0,48,0.00,,,0.00,Wunderground v.1.15,2013-05-31 20:32:00,
2013-05-31 13:42:00,66.1,45.3,30.24,WNW,282,1.0,1.0,47,0.00,,,0.00,Wunderground v.1.15,2013-05-31 20:42:00,
2013-05-31 13:52:00,64.2,44.6,30.23,West,270,3.0,7.0,49,0.00,,,0.00,Wunderground v.1.15,2013-05-31 20:52:00,
2013-05-31 13:57:00,63.5,44.5,30.23,WNW,301,3.0,7.0,50,0.00,,,0.00,Wunderground v.1.15,2013-05-31 20:57:00,
2013-05-31 14:07:00,64.3,43.6,30.24,North,359,1.0,2.0,47,0.00,,,0.00,Wunderground v.1.15,2013-05-31 21:07:00,
2013-05-31 14:17:00,65.2,44.5,30.23,SSW,209,1.0,2.0,47,0.00,,,0.00,Wunderground v.1.15,2013-05-31 21:17:00,
2013-05-31 14:27:00,65.6,43.7,30.23,WSW,250,0.0,0.0,45,0.00,,,0.00,Wunderground v.1.15,2013-05-31 21:27:00,
2013-05-31 14:37:00,65.5,43.6,30.23,SW,227,0.0,5.0,45,0.00,,,0.00,Wunderground v.1.15,2013-05-31 21:37:00,
2013-05-31 14:42:00,65.2,43.9,30.23,NNW,346,1.0,1.0,46,0.00,,,0.00,Wunderground v.1.15,2013-05-31 21:42:00,
2013-05-31 14:52:00,65.6,43.1,30.23,North,352,0.0,5.0,44,0.00,,,0.00,Wunderground v.1.15,2013-05-31 21:52:00,
2013-05-31 14:57:00,65.6,43.1,30.23,NNW,332,1.0,5.0,44,0.00,,,0.00,Wunderground v.1.15,2013-05-31 21:57:00,
2013-05-31 15:07:00,65.6,42.5,30.23,NE,41,0.0,1.0,43,0.00,,,0.00,Wunderground v.1.15,2013-05-31 22:07:00,
2013-05-31 15:12:00,65.6,43.1,30.23,NNW,346,0.0,0.0,44,0.00,,,0.00,Wunderground v.1.15,2013-05-31 22:12:00,
2013-05-31 15:22:00,65.2,43.3,30.22,NE,45,0.0,0.0,45,0.00,,,0.00,Wunderground v.1.15,2013-05-31 22:22:00,
2013-05-31 15:27:00,65.0,41.9,30.22,NW,305,1.0,2.0,43,0.00,,,0.00,Wunderground v.1.15,2013-05-31 22:27:00,
2013-05-31 15:37:00,64.7,41.1,30.22,WNW,299,1.0,1.0,42,0.00,,,0.00,Wunderground v.1.15,2013-05-31 22:37:00,
2013-05-31 15:42:00,65.3,42.8,30.22,WNW,289,0.0,0.0,44,0.00,,,0.00,Wunderground v.1.15,2013-05-31 22:42:00,
2013-05-31 15:52:00,66.1,41.1,30.22,NE,34,0.0,0.0,40,0.00,,,0.00,Wunderground v.1.15,2013-05-31 22:52:00,
2013-05-31 15:57:00,67.1,42.0,30.22,NNW,336,0.0,0.0,40,0.00,,,0.00,Wunderground v.1.15,2013-05-31 22:57:00,
2013-05-31 16:07:00,66.8,41.7,30.22,North,356,0.0,6.0,40,0.00,,,0.00,Wunderground v.1.15,2013-05-31 23:07:00,
2013-05-31 16:12:00,66.6,41.5,30.22,North,353,0.0,0.0,40,0.00,,,0.00,Wunderground v.1.15,2013-05-31 23:12:00,
2013-05-31 16:22:00,67.9,41.3,30.22,North,0,0.0,0.0,38,0.00,,,0.00,Wunderground v.1.15,2013-05-31 23:22:00,
2013-05-31 16:27:00,67.9,42.0,30.22,NNW,340,0.0,0.0,39,0.00,,,0.00,Wunderground v.1.15,2013-05-31 23:27:00,
2013-05-31 16:37:00,67.8,41.3,30.21,WNW,294,0.0,0.0,38,0.00,,,0.00,Wunderground v.1.15,2013-05-31 23:37:00,
2013-05-31 16:42:00,67.4,42.2,30.21,NW,309,0.0,1.0,40,0.00,,,0.00,Wunderground v.1.15,2013-05-31 23:42:00,
2013-05-31 16:52:00,68.1,41.5,30.21,NW,318,0.0,0.0,38,0.00,,,0.00,Wunderground v.1.15,2013-05-31 23:52:00,
2013-05-31 17:02:00,66.9,40.5,30.20,NNW,329,1.0,7.0,38,0.00,,,0.00,Wunderground v.1.15,2013-06-01 00:02:00,
2013-05-31 17:07:00,66.8,40.4,30.20,NW,323,1.0,7.0,38,0.00,,,0.00,Wunderground v.1.15,2013-06-01 00:07:00,
2013-05-31 17:12:00,66.8,40.4,30.20,WNW,285,1.0,1.0,38,0.00,,,0.00,Wunderground v.1.15,2013-06-01 00:12:00,
2013-05-31 17:22:00,67.9,40.7,30.20,NW,322,0.0,0.0,37,0.00,,,0.00,Wunderground v.1.15,2013-06-01 00:22:00,
2013-05-31 17:27:00,67.9,41.3,30.20,NNW,347,1.0,3.0,38,0.00,,,0.00,Wunderground v.1.15,2013-06-01 00:27:00,
2013-05-31 17:32:00,67.8,41.3,30.20,North,353,1.0,6.0,38,0.00,,,0.00,Wunderground v.1.15,2013-06-01 00:32:00,
2013-05-31 17:42:00,67.4,41.6,30.20,NW,326,3.0,3.0,39,0.00,,,0.00,Wunderground v.1.15,2013-06-01 00:42:00,
2013-05-31 17:52:00,66.6,42.2,30.19,NNW,336,1.0,1.0,41,0.00,,,0.00,Wunderground v.1.15,2013-06-01 00:52:00,
2013-05-31 17:57:00,66.9,41.8,30.19,NNW,343,0.0,1.0,40,0.00,,,0.00,Wunderground v.1.15,2013-06-01 00:57:00,
2013-05-31 18:07:00,67.4,41.6,30.19,North,352,1.0,4.0,39,0.00,,,0.00,Wunderground v.1.15,2013-06-01 01:07:00,
2013-05-31 18:17:00,68.3,42.4,30.19,NW,315,0.0,1.0,39,0.00,,,0.00,Wunderground v.1.15,2013-06-01 01:17:00,
2013-05-31 18:27:00,66.6,42.2,30.19,NW,311,4.0,5.0,41,0.00,,,0.00,Wunderground v.1.15,2013-06-01 01:27:00,
2013-05-31 18:37:00,66.3,41.2,30.18,NW,305,3.0,3.0,40,0.00,,,0.00,Wunderground v.1.15,2013-06-01 01:37:00,
2013-05-31 18:47:00,66.4,41.3,30.18,WSW,246,1.0,3.0,40,0.00,,,0.00,Wunderground v.1.15,2013-06-01 01:47:00,
2013-05-31 18:57:00,67.4,41.6,30.18,NNW,342,1.0,1.0,39,0.00,,,0.00,Wunderground v.1.15,2013-06-01 01:57:00,
2013-05-31 19:07:00,67.4,42.2,30.18,North,359,2.0,2.0,40,0.00,,,0.00,Wunderground v.1.15,2013-06-01 02:07:00,
2013-05-31 19:17:00,66.9,42.4,30.18,North,359,3.0,7.0,41,0.00,,,0.00,Wunderground v.1.15,2013-06-01 02:17:00,
2013-05-31 19:27:00,66.8,42.3,30.18,NNW,330,4.0,6.0,41,0.00,,,0.00,Wunderground v.1.15,2013-06-01 02:27:00,
2013-05-31 19:32:00,67.3,42.8,30.18,North,353,1.0,1.0,41,0.00,,,0.00,Wunderground v.1.15,2013-06-01 02:32:00,
2013-05-31 19:42:00,65.6,45.9,30.18,WNW,291,2.0,2.0,49,0.00,,,0.00,Wunderground v.1.15,2013-06-01 02:42:00,
2013-05-31 19:47:00,65.6,44.8,30.18,NW,323,3.0,3.0,47,0.00,,,0.00,Wunderground v.1.15,2013-06-01 02:47:00,
2013-05-31 19:57:00,65.3,45.6,30.18,SW,233,1.0,2.0,49,0.00,,,0.00,Wunderground v.1.15,2013-06-01 02:57:00,
2013-05-31 20:02:00,64.8,45.7,30.18,WSW,256,2.0,2.0,50,0.00,,,0.00,Wunderground v.1.15,2013-06-01 03:02:00,
2013-05-31 20:07:00,64.3,45.3,30.18,WNW,299,3.0,4.0,50,0.00,,,0.00,Wunderground v.1.15,2013-06-01 03:07:00,
2013-05-31 20:17:00,63.9,45.9,30.18,WNW,288,1.0,2.0,52,0.00,,,0.00,Wunderground v.1.15,2013-06-01 03:17:00,
2013-05-31 20:27:00,63.7,46.2,30.18,NW,316,0.0,3.0,53,0.00,,,0.00,Wunderground v.1.15,2013-06-01 03:27:00,
2013-05-31 20:32:00,63.4,46.0,30.18,NW,304,0.0,0.0,53,0.00,,,0.00,Wunderground v.1.15,2013-06-01 03:32:00,
2013-05-31 20:42:00,62.9,45.0,30.18,NW,325,0.0,0.0,52,0.00,,,0.00,Wunderground v.1.15,2013-06-01 03:42:00,
2013-05-31 20:47:00,62.7,44.3,30.17,NNW,328,0.0,0.0,51,0.00,,,0.00,Wunderground v.1.15,2013-06-01 03:47:00,
2013-05-31 20:57:00,62.4,44.5,30.17,NW,304,0.0,0.0,52,0.00,,,0.00,Wunderground v.1.15,2013-06-01 03:57:00,
2013-05-31 21:02:00,62.1,44.3,30.18,NW,304,0.0,9.0,52,0.00,,,0.00,Wunderground v.1.15,2013-06-01 04:02:00,
2013-05-31 21:07:00,61.6,44.3,30.18,NW,304,0.0,9.0,53,0.00,,,0.00,Wunderground v.1.15,2013-06-01 04:07:00,
2013-05-31 21:12:00,61.6,43.8,30.18,NW,305,0.0,0.0,52,0.00,,,0.00,Wunderground v.1.15,2013-06-01 04:12:00,
2013-05-31 21:17:00,61.2,44.4,30.18,NW,305,0.0,1.0,54,0.00,,,0.00,Wunderground v.1.15,2013-06-01 04:17:00,
2013-05-31 21:22:00,60.9,43.6,30.18,WNW,301,0.0,0.0,53,0.00,,,0.00,Wunderground v.1.15,2013-06-01 04:22:00,
2013-05-31 21:32:00,60.7,43.9,30.18,WNW,294,0.0,0.0,54,0.00,,,0.00,Wunderground v.1.15,2013-06-01 04:32:00,
2013-05-31 21:42:00,60.5,46.5,30.18,WNW,294,0.0,0.0,60,0.00,,,0.00,Wunderground v.1.15,2013-06-01 04:42:00,
2013-05-31 21:52:00,59.8,46.7,30.19,West,277,0.0,0.0,62,0.00,,,0.00,Wunderground v.1.15,2013-06-01 04:52:00,
2013-05-31 21:57:00,59.6,46.1,30.19,West,277,0.0,0.0,61,0.00,,,0.00,Wunderground v.1.15,2013-06-01 04:57:00,
2013-05-31 22:07:00,59.5,46.5,30.19,West,277,0.0,5.0,62,0.00,,,0.00,Wunderground v.1.15,2013-06-01 05:07:00,
2013-05-31 22:17:00,59.3,46.3,30.19,West,277,0.0,0.0,62,0.00,,,0.00,Wunderground v.1.15,2013-06-01 05:17:00,
2013-05-31 22:27:00,59.0,46.8,30.19,West,277,0.0,0.0,64,0.00,,,0.00,Wunderground v.1.15,2013-06-01 05:27:00,
2013-05-31 22:32:00,59.0,46.4,30.19,West,277,0.0,0.0,63,0.00,,,0.00,Wunderground v.1.15,2013-06-01 05:32:00,
2013-05-31 22:42:00,59.0,46.8,30.19,West,277,0.0,0.0,64,0.00,,,0.00,Wunderground v.1.15,2013-06-01 05:42:00,
2013-05-31 22:52:00,58.4,47.9,30.18,West,277,0.0,0.0,68,0.00,,,0.00,Wunderground v.1.15,2013-06-01 05:52:00,
2013-05-31 22:57:00,58.0,48.3,30.18,West,277,0.0,0.0,70,0.00,,,0.00,Wunderground v.1.15,2013-06-01 05:57:00,
2013-05-31 23:07:00,57.2,49.7,30.18,West,277,0.0,0.0,76,0.00,,,0.00,Wunderground v.1.15,2013-06-01 06:07:00,
2013-05-31 23:12:00,56.7,49.2,30.18,West,277,0.0,0.0,76,0.00,,,0.00,Wunderground v.1.15,2013-06-01 06:12:00,
2013-05-31 23:22:00,56.0,49.9,30.19,West,277,0.0,0.0,80,0.00,,,0.00,Wunderground v.1.15,2013-06-01 06:22:00,
2013-05-31 23:32:00,55.0,51.5,30.18,West,280,0.0,0.0,88,0.00,,,0.00,Wunderground v.1.15,2013-06-01 06:32:00,
2013-05-31 23:42:00,54.8,51.0,30.18,West,281,0.0,0.0,87,0.00,,,0.00,Wunderground v.1.15,2013-06-01 06:42:00,
2013-05-31 23:47:00,54.8,51.3,30.18,West,281,0.0,0.0,88,0.00,,,0.00,Wunderground v.1.15,2013-06-01 06:47:00,
2013-05-31 23:57:00,55.0,51.2,30.18,West,281,0.0,0.0,87,0.00,,,0.00,Wunderground v.1.15,2013-06-01 06:57:00,